264P/Larsen (2004)

Japanese version
Home page
Updated on June 24, 2012

---------------------------------------------------------------------

* Profile

Designation 264P/2004 H3
Discovery Date April 22, 2004
Magnitude 19.2 mag
Discoverer J. A. Larsen (Lunar and Planetary Laboratory)

* Orbital Elements

Epoch 2004 Mar. 16.0 TT = JDT 2453080.5
T 2004 Mar. 13.16166 TT                                 MPC
q   2.4371094            (2000.0)            P               Q
n   0.12832408     Peri.  346.56032     -0.87229446     +0.40182761
a   3.8928166      Node   220.97345     -0.40009874     -0.91411263
e   0.3739470      Incl.   25.14657     -0.28111094     +0.05415414
P   7.68
From 89 observations 2004 Apr. 22-2012 June 18, mean residual 0".6.

* Finding Charts

* Magnitudes Graph

        m1 = -14 + 5 log d + 80 log r

---------------------------------------------------------------------

The orbital elements are published on M.P.E.C. 2012-M33.
The charts are made with StellaNavigator Ver.2.0 for Windows (AstroArts / ASCII).
The magnitudes graphs are made with Comet for Windows.

---------------------------------------------------------------------

Copyright(C) Seiichi Yoshida (comet@aerith.net). All rights reserved.